SCOUT A DEB, 3591

Orbit data source: Space-Track

SCOUT A DEB, 3591 is space debris in LEO originally from a launch on Thu, 19 May 1966 UTC launched from the Air Force Western Test Range (AFWTR). Debris objects in space refer to the collection of defunct objects orbiting the Earth. Examples of debris include non-operational satellites, rocket bodies, and fragments generated from explosions, collisions, or faulty payload assembly.

Loading next visibility...
Identifier
3591, 1966-041E
Orbit
LEO
Country
Flag of USUS
Related business
Manufacturer
Unknown
Mission
Spacecraft
Bus & Motor
Unknown
Mass
Unknown
Launch date (UTC)
1966-05-19 (60 years ago)
Launch vehicle
Unknown
Launch site
Air Force Western Test Range (AFWTR)
Object type
Payload
Rocket body
Debris
Shape & HBR
Unknown shape, 0.2 m
Radar Cross Section
Small (<0.1 m²)

Expand to show TLE details & history
Last TLE update: 11 hours ago

TLE from 11 hours ago
0 SCOUT A DEB
1 03591U 66041E   26034.10541365  .00000383  00000-0  22900-3 0  9995
2 03591  90.2142  79.3136 0083071 197.0532 162.7855 14.04018222 48575
Epoch: 2026-02-03T02:31Z
TLE epoch observation values (Epoch: 2026-02-03T02:31:47.739Z)
Latitude
-0.00003°
Longitude
-91.92643°
Altitude
940.594 km
Speed
7.352 km/s
True Right ascension
05h 17m 15s
True Declination
0° 00' 00"
Sunlit
Object was in full shadow at epoch
Visualization orbit readout
Latitude
Unknown
Longitude
Unknown
Altitude
Unknown
Speed
Unknown
Apparent Right ascension
Unknown
Apparent Declination
Unknown
Sunlit
N/A
Visualization observer readout
Local Sidereal Time
15:15:19
Azimuth
Unknown
Elevation
Unknown
Doppler factor
Unknown
Orbital elements
Apogee altitude
937.153 km
Perigee altitude
816.617 km
Semi-major axis
7,255.022 km
Eccentricity
0.00831
Inclination
90.2142°
RAAN
79.3136°
Arg. of periapsis
197.0532°
True anomaly
163.06445°
Mean anomaly
162.7855°
Eccentric anomaly
162.92525°
Mean motion
3.51225 °/min
Orbital period
102.5 mins
BSTAR
0.000229
Loading maneuver chart data...
Computing Atmospheric mass density...
Loading historical data...
Loading historical data...
Loading historical data...
Loading historical data...
Loading historical data...
Loading historical data...
Loading historical data...

Documentation

Showing up to 5 results
|